Flag for Germany Weather past 2 weeks in Krefeld, North Rhine-Westphalia, Germany

Now
54 °F

Thunderstorms. Passing clouds.


Feels Like: 48 °F
Forecast: 41 / 47 °F
Wind: 20 mph from West

Location: Monchengladbach Airport

Current Time: Mar 29, 2015 at 11:17:47 PM

Latest Report: Mar 29, 2015 at 8:20 PM


Visibility: 3 mi

Pressure: 29.27 "Hg

Humidity: 82%

Dew point: 48 °F

Location of KrefeldLocation

Historic Weather in Krefeld — Graph

°F

Krefeld temperature yesterday

Maximum temperature yesterday: 54 °F (at 11:20 AM)
Minimum temperature yesterday: 36 °F (at 7:50 AM)
Average temperature yesterday: 49 °F

Past Weeks' High & Low Weather Summary

 TemperatureHumidityPressure
High64 °F (Mar 17, 3:20 PM)100% (Mar 15, 9:20 AM)30.39 "Hg (Mar 15, 9:20 AM)
Low32 °F (Mar 17, 7:20 AM)34% (Mar 17, 3:20 PM)29.27 "Hg (Mar 29, 7:50 PM)
Average47 °F79%30.05 "Hg
* Reported Mar 14 7:20 PM — Mar 29 8:20 PM, Krefeld, Weather by CustomWeather, © 2015

Note: Actual official high and low records may vary slightly from our data, if they occured in-between our weather recording intervals... More about our weather records

Advertising

Krefeld weather history for previous 24 hours

 ConditionsComfort  
Time TempWeatherWind HumidityBarometerVisibility
8:20 PM
Sun, Mar 29
54 °FThunderstorms. Passing clouds.20 mph82%29.27 "Hg3 mi
7:50 PM54 °FLight rain. Passing clouds.20 mph88%29.27 "Hg4 mi
7:20 PM52 °FLight rain. Passing clouds.20 mph94%29.30 "Hg3 mi
6:50 PM52 °FLight rain. Passing clouds.18 mph94%29.30 "Hg3 mi
6:20 PM52 °FLight rain. Passing clouds.21 mph100%29.30 "Hg3 mi
5:50 PM52 °FRain. Passing clouds.18 mph100%29.33 "Hg3 mi
5:20 PM52 °FDrizzle. Fog.16 mph100%29.33 "Hg2 mi
4:50 PM52 °FPassing clouds.15 mph100%29.36 "Hg4 mi
4:20 PM52 °FLight rain. Passing clouds.15 mph100%29.39 "Hg5 mi
3:50 PM52 °FPassing clouds.15 mph100%29.39 "Hg4 mi
3:20 PM52 °FLight rain. Passing clouds.14 mph100%29.42 "Hg5 mi
2:50 PM52 °FLight rain. Passing clouds.15 mph94%29.45 "Hg4 mi
2:20 PM52 °FPassing clouds.15 mph100%29.47 "Hg3 mi
1:50 PM50 °FRain. Passing clouds.13 mph100%29.50 "Hg3 mi
1:20 PM50 °FPassing clouds.12 mph100%29.53 "Hg3 mi
12:50 PM50 °FDrizzle. Fog.13 mph100%29.56 "Hg3 mi
12:20 PM50 °FLight rain. Passing clouds.14 mph94%29.59 "Hg5 mi
11:50 AM50 °FLight rain. Partly sunny.12 mph100%29.59 "Hg5 mi
11:20 AM48 °FDrizzle. Fog.12 mph100%29.62 "Hg3 mi
10:50 AM48 °FDrizzle. Fog.13 mph100%29.62 "Hg3 mi
10:20 AM48 °FLight rain. Fog.12 mph100%29.65 "Hg3 mi
9:50 AM48 °FLight rain. Partly sunny.14 mph100%29.65 "Hg4 mi
9:20 AM50 °FLight rain. Partly sunny.12 mph82%29.65 "HgN/A
8:50 AM50 °FPartly sunny.13 mph82%29.68 "HgN/A
8:20 AM52 °FPartly sunny.16 mph72%29.68 "HgN/A
7:50 AM52 °FPartly sunny.14 mph72%29.68 "HgN/A
Weather by CustomWeather, © 2015

See weather overviewHow to use our weather pages